Tiszta, felhőtlen égbolt
Változó égbolt esetleges viharfelhőkkel
Változó égbolt esetleges viharfelhőkkel
Változó égbolt esetleges viharfelhőkkel
Részlegesen felhős égbolt néhány fátyolfelhővel
Tiszta égbolt néhány alacsony és fátyolfelhővel
Tiszta égbolt néhány alacsony és fátyolfelhővel
Tiszta égbolt fátyolfelhőkkel
Tiszta égbolt néhány fátyolfelhővel
(°C)
26°
26°
27°
27°
27°
27°
27°
27°
27°
27°
26°
26°
25°
25°
23°
23°
21°
21°
(°C)
26°
26°
26°
26°
25°
25°
24°
22°
21°
NÉN
NÉN
NÉN
NÉN
NÉN
NÉN
NÉN
NÉN
NÉN
(km/h)
11-25
12-25
13-27
13-27
13-29
12-28
12-27
11-24
9-18
(mm)
0
0
0
0
0
0
0
0
0
(%)
0
0
0
0
0
0
0
0
0

Napfelkelte

/ 58.5°
sun-icon
UV 5
04:28
20:30
Telihold (185°)
21:10
03:32

METAR 51.82°É 39.23°K (UUOO)-ért

Idő Feltételek Hőmérséklet/
Harmatpont
Szél Látási viszonyok Időjárás Felhők Légnyomás Módosítás Nyers
VFR 26°C / 13°C 300º variable 260º to 330º 8kt 9700m - Clouds and Visibility OK 1010 No Significant change. Runway 30: Clear and dry, 1-10% contamination with <1mm, friction coefficient 0.70. UUOO 210900Z 30004MPS 260V330 CAVOK 26/13 Q1010 R30/010070 NOSIG RMK QFE744
VFR 26°C / 13°C 280º variable 250º to 320º 8kt 9700m - Clouds and Visibility OK 1010 No Significant change. Runway 30: Clear and dry, 1-10% contamination with <1mm, friction coefficient 0.70. UUOO 210830Z 28004MPS 250V320 CAVOK 26/13 Q1010 R30/010070 NOSIG RMK QFE744
VFR 26°C / 13°C 330º variable 290º to 020º 8kt 9700m - Clouds and Visibility OK 1010 No Significant change. Runway 30: Clear and dry, 1-10% contamination with <1mm, friction coefficient 0.70. UUOO 210800Z 33004MPS 290V020 CAVOK 26/13 Q1010 R30/010070 NOSIG RMK QFE744
VFR 26°C / 13°C 330º 8kt 9700m - Clouds and Visibility OK 1010 No Significant change. Runway 30: Clear and dry, 1-10% contamination with <1mm, friction coefficient 0.70. UUOO 210730Z 33004MPS CAVOK 26/13 Q1010 R30/010070 NOSIG RMK QFE744
VFR 25°C / 13°C 310º variable 280º to 350º 6kt 9700m - Clouds and Visibility OK 1010 No Significant change. Runway 30: Clear and dry, 1-10% contamination with <1mm, friction coefficient 0.70. UUOO 210700Z 31003MPS 280V350 CAVOK 25/13 Q1010 R30/010070 NOSIG RMK QFE744
VFR 24°C / 14°C 310º variable 270º to 340º 8kt 9700m - Clouds and Visibility OK 1010 No Significant change. Runway 30: Clear and dry, 1-10% contamination with <1mm, friction coefficient 0.70. UUOO 210630Z 31004MPS 270V340 CAVOK 24/14 Q1010 R30/010070 NOSIG RMK QFE744
VFR 24°C / 14°C 330º 10kt 9700m - Clouds and Visibility OK 1010 No Significant change. Runway 30: Clear and dry, 1-10% contamination with <1mm, friction coefficient 0.70. UUOO 210600Z 33005MPS CAVOK 24/14 Q1010 R30/010070 NOSIG RMK QFE744
VFR 23°C / 15°C 320º 6kt 9700m - Clouds and Visibility OK 1010 No Significant change. Runway 30: Clear and dry, 1-10% contamination with <1mm, friction coefficient 0.70. UUOO 210530Z 32003MPS CAVOK 23/15 Q1010 R30/010070 NOSIG RMK QFE744
VFR 22°C / 15°C 320º 6kt 9700m - Clouds and Visibility OK 1010 No Significant change. Runway 30: Clear and dry, 1-10% contamination with <1mm, friction coefficient 0.70. UUOO 210500Z 32003MPS CAVOK 22/15 Q1010 R30/010070 NOSIG RMK QFE744
VFR 20°C / 14°C 320º 6kt 9700m - Clouds and Visibility OK 1010 No Significant change. Runway 30: Clear and dry, 1-10% contamination with <1mm, friction coefficient 0.70. UUOO 210430Z 32003MPS CAVOK 20/14 Q1010 R30/010070 NOSIG RMK QFE744
VFR 19°C / 14°C 320º 6kt 9700m - Clouds and Visibility OK 1010 No Significant change. Runway 30: Clear and dry, 1-10% contamination with <1mm, friction coefficient 0.70. UUOO 210400Z 32003MPS CAVOK 19/14 Q1010 R30/010070 NOSIG RMK QFE744
VFR 18°C / 15°C 300º 6kt 9700m - Clouds and Visibility OK 1009 No Significant change. Runway 30: Clear and dry, 1-10% contamination with <1mm, friction coefficient 0.70. UUOO 210330Z 30003MPS CAVOK 18/15 Q1009 R30/010070 NOSIG RMK QFE743
VFR 17°C / 14°C 300º 6kt 9700m - Clouds and Visibility OK 1009 No Significant change. Runway 30: Clear and dry, 1-10% contamination with <1mm, friction coefficient 0.70. UUOO 210300Z 30003MPS CAVOK 17/14 Q1009 R30/010070 NOSIG RMK QFE743
VFR 16°C / 14°C 300º 6kt 9700m - Clouds and Visibility OK 1009 No Significant change. Runway 30: Clear and dry, 1-10% contamination with <1mm, friction coefficient 0.70. UUOO 210230Z 30003MPS CAVOK 16/14 Q1009 R30/010070 NOSIG RMK QFE743
VFR 15°C / 14°C 290º 6kt 9700m - Clouds and Visibility OK 1009 No Significant change. Runway 30: Clear and dry, 1-10% contamination with <1mm, friction coefficient 0.70. UUOO 210200Z 29003MPS CAVOK 15/14 Q1009 R30/010070 NOSIG RMK QFE743
VFR 15°C / 13°C 290º 6kt 9700m - Clouds and Visibility OK 1009 No Significant change. Runway 30: Clear and dry, 1-10% contamination with <1mm, friction coefficient 0.70. UUOO 210130Z 29003MPS CAVOK 15/13 Q1009 R30/010070 NOSIG RMK QFE743
VFR 15°C / 13°C 290º 6kt 9700m - Clouds and Visibility OK 1009 No Significant change. Runway 30: Clear and dry, 1-10% contamination with <1mm, friction coefficient 0.70. UUOO 210100Z 29003MPS CAVOK 15/13 Q1009 R30/010070 NOSIG RMK QFE743
VFR 15°C / 13°C 290º 6kt 9700m - Clouds and Visibility OK 1009 No Significant change. Runway 30: Clear and dry, 1-10% contamination with <1mm, friction coefficient 0.70. UUOO 210030Z 29003MPS CAVOK 15/13 Q1009 R30/010070 NOSIG RMK QFE743
VFR 15°C / 13°C 290º 6kt 9700m - Clouds and Visibility OK 1009 No Significant change. Runway 30: Clear and dry, 1-10% contamination with <1mm, friction coefficient 0.70. UUOO 210000Z 29003MPS CAVOK 15/13 Q1009 R30/010070 NOSIG RMK QFE743
VFR 16°C / 14°C 290º 4kt 9700m - Clouds and Visibility OK 1009 No Significant change. Runway 30: Clear and dry, 1-10% contamination with <1mm, friction coefficient 0.70. UUOO 202330Z 29002MPS CAVOK 16/14 Q1009 R30/010070 NOSIG RMK QFE743
VFR 17°C / 14°C 290º 4kt 9700m - Clouds and Visibility OK 1009 No Significant change. Runway 30: Clear and dry, 1-10% contamination with <1mm, friction coefficient 0.70. UUOO 202300Z 29002MPS CAVOK 17/14 Q1009 R30/010070 NOSIG RMK QFE743
VFR 18°C / 14°C 290º 4kt 9700m - Clouds and Visibility OK 1009 No Significant change. Runway 30: Clear and dry, 1-10% contamination with <1mm, friction coefficient 0.70. UUOO 202230Z 29002MPS CAVOK 18/14 Q1009 R30/010070 NOSIG RMK QFE743
VFR 18°C / 13°C 300º 6kt 9700m - Clouds and Visibility OK 1009 No Significant change. Runway 30: Clear and dry, 1-10% contamination with <1mm, friction coefficient 0.70. UUOO 202200Z 30003MPS CAVOK 18/13 Q1009 R30/010070 NOSIG RMK QFE743
VFR 18°C / 14°C 300º 6kt 9700m - Clouds and Visibility OK 1009 No Significant change. Runway 30: Clear and dry, 1-10% contamination with <1mm, friction coefficient 0.70. UUOO 202130Z 30003MPS CAVOK 18/14 Q1009 R30/010070 NOSIG RMK QFE743

VFR

26°C / 13°C

[Több]
Szél 300º variable 260º to 330º 8kt
Látási viszonyok 9700m
Időjárás -
Felhők Clouds and Visibility OK
Légnyomás 1010
Módosítás No Significant change. Runway 30: Clear and dry, 1-10% contamination with <1mm, friction coefficient 0.70.
Nyers UUOO 210900Z 30004MPS 260V330 CAVOK 26/13 Q1010 R30/010070 NOSIG RMK QFE744

VFR

26°C / 13°C

[Több]
Szél 280º variable 250º to 320º 8kt
Látási viszonyok 9700m
Időjárás -
Felhők Clouds and Visibility OK
Légnyomás 1010
Módosítás No Significant change. Runway 30: Clear and dry, 1-10% contamination with <1mm, friction coefficient 0.70.
Nyers UUOO 210830Z 28004MPS 250V320 CAVOK 26/13 Q1010 R30/010070 NOSIG RMK QFE744

VFR

26°C / 13°C

[Több]
Szél 330º variable 290º to 020º 8kt
Látási viszonyok 9700m
Időjárás -
Felhők Clouds and Visibility OK
Légnyomás 1010
Módosítás No Significant change. Runway 30: Clear and dry, 1-10% contamination with <1mm, friction coefficient 0.70.
Nyers UUOO 210800Z 33004MPS 290V020 CAVOK 26/13 Q1010 R30/010070 NOSIG RMK QFE744

VFR

26°C / 13°C

[Több]
Szél 330º 8kt
Látási viszonyok 9700m
Időjárás -
Felhők Clouds and Visibility OK
Légnyomás 1010
Módosítás No Significant change. Runway 30: Clear and dry, 1-10% contamination with <1mm, friction coefficient 0.70.
Nyers UUOO 210730Z 33004MPS CAVOK 26/13 Q1010 R30/010070 NOSIG RMK QFE744

VFR

25°C / 13°C

[Több]
Szél 310º variable 280º to 350º 6kt
Látási viszonyok 9700m
Időjárás -
Felhők Clouds and Visibility OK
Légnyomás 1010
Módosítás No Significant change. Runway 30: Clear and dry, 1-10% contamination with <1mm, friction coefficient 0.70.
Nyers UUOO 210700Z 31003MPS 280V350 CAVOK 25/13 Q1010 R30/010070 NOSIG RMK QFE744

VFR

24°C / 14°C

[Több]
Szél 310º variable 270º to 340º 8kt
Látási viszonyok 9700m
Időjárás -
Felhők Clouds and Visibility OK
Légnyomás 1010
Módosítás No Significant change. Runway 30: Clear and dry, 1-10% contamination with <1mm, friction coefficient 0.70.
Nyers UUOO 210630Z 31004MPS 270V340 CAVOK 24/14 Q1010 R30/010070 NOSIG RMK QFE744

VFR

24°C / 14°C

[Több]
Szél 330º 10kt
Látási viszonyok 9700m
Időjárás -
Felhők Clouds and Visibility OK
Légnyomás 1010
Módosítás No Significant change. Runway 30: Clear and dry, 1-10% contamination with <1mm, friction coefficient 0.70.
Nyers UUOO 210600Z 33005MPS CAVOK 24/14 Q1010 R30/010070 NOSIG RMK QFE744

VFR

23°C / 15°C

[Több]
Szél 320º 6kt
Látási viszonyok 9700m
Időjárás -
Felhők Clouds and Visibility OK
Légnyomás 1010
Módosítás No Significant change. Runway 30: Clear and dry, 1-10% contamination with <1mm, friction coefficient 0.70.
Nyers UUOO 210530Z 32003MPS CAVOK 23/15 Q1010 R30/010070 NOSIG RMK QFE744

VFR

22°C / 15°C

[Több]
Szél 320º 6kt
Látási viszonyok 9700m
Időjárás -
Felhők Clouds and Visibility OK
Légnyomás 1010
Módosítás No Significant change. Runway 30: Clear and dry, 1-10% contamination with <1mm, friction coefficient 0.70.
Nyers UUOO 210500Z 32003MPS CAVOK 22/15 Q1010 R30/010070 NOSIG RMK QFE744

VFR

20°C / 14°C

[Több]
Szél 320º 6kt
Látási viszonyok 9700m
Időjárás -
Felhők Clouds and Visibility OK
Légnyomás 1010
Módosítás No Significant change. Runway 30: Clear and dry, 1-10% contamination with <1mm, friction coefficient 0.70.
Nyers UUOO 210430Z 32003MPS CAVOK 20/14 Q1010 R30/010070 NOSIG RMK QFE744

VFR

19°C / 14°C

[Több]
Szél 320º 6kt
Látási viszonyok 9700m
Időjárás -
Felhők Clouds and Visibility OK
Légnyomás 1010
Módosítás No Significant change. Runway 30: Clear and dry, 1-10% contamination with <1mm, friction coefficient 0.70.
Nyers UUOO 210400Z 32003MPS CAVOK 19/14 Q1010 R30/010070 NOSIG RMK QFE744

VFR

18°C / 15°C

[Több]
Szél 300º 6kt
Látási viszonyok 9700m
Időjárás -
Felhők Clouds and Visibility OK
Légnyomás 1009
Módosítás No Significant change. Runway 30: Clear and dry, 1-10% contamination with <1mm, friction coefficient 0.70.
Nyers UUOO 210330Z 30003MPS CAVOK 18/15 Q1009 R30/010070 NOSIG RMK QFE743

VFR

17°C / 14°C

[Több]
Szél 300º 6kt
Látási viszonyok 9700m
Időjárás -
Felhők Clouds and Visibility OK
Légnyomás 1009
Módosítás No Significant change. Runway 30: Clear and dry, 1-10% contamination with <1mm, friction coefficient 0.70.
Nyers UUOO 210300Z 30003MPS CAVOK 17/14 Q1009 R30/010070 NOSIG RMK QFE743

VFR

16°C / 14°C

[Több]
Szél 300º 6kt
Látási viszonyok 9700m
Időjárás -
Felhők Clouds and Visibility OK
Légnyomás 1009
Módosítás No Significant change. Runway 30: Clear and dry, 1-10% contamination with <1mm, friction coefficient 0.70.
Nyers UUOO 210230Z 30003MPS CAVOK 16/14 Q1009 R30/010070 NOSIG RMK QFE743

VFR

15°C / 14°C

[Több]
Szél 290º 6kt
Látási viszonyok 9700m
Időjárás -
Felhők Clouds and Visibility OK
Légnyomás 1009
Módosítás No Significant change. Runway 30: Clear and dry, 1-10% contamination with <1mm, friction coefficient 0.70.
Nyers UUOO 210200Z 29003MPS CAVOK 15/14 Q1009 R30/010070 NOSIG RMK QFE743

VFR

15°C / 13°C

[Több]
Szél 290º 6kt
Látási viszonyok 9700m
Időjárás -
Felhők Clouds and Visibility OK
Légnyomás 1009
Módosítás No Significant change. Runway 30: Clear and dry, 1-10% contamination with <1mm, friction coefficient 0.70.
Nyers UUOO 210130Z 29003MPS CAVOK 15/13 Q1009 R30/010070 NOSIG RMK QFE743

VFR

15°C / 13°C

[Több]
Szél 290º 6kt
Látási viszonyok 9700m
Időjárás -
Felhők Clouds and Visibility OK
Légnyomás 1009
Módosítás No Significant change. Runway 30: Clear and dry, 1-10% contamination with <1mm, friction coefficient 0.70.
Nyers UUOO 210100Z 29003MPS CAVOK 15/13 Q1009 R30/010070 NOSIG RMK QFE743

VFR

15°C / 13°C

[Több]
Szél 290º 6kt
Látási viszonyok 9700m
Időjárás -
Felhők Clouds and Visibility OK
Légnyomás 1009
Módosítás No Significant change. Runway 30: Clear and dry, 1-10% contamination with <1mm, friction coefficient 0.70.
Nyers UUOO 210030Z 29003MPS CAVOK 15/13 Q1009 R30/010070 NOSIG RMK QFE743

VFR

15°C / 13°C

[Több]
Szél 290º 6kt
Látási viszonyok 9700m
Időjárás -
Felhők Clouds and Visibility OK
Légnyomás 1009
Módosítás No Significant change. Runway 30: Clear and dry, 1-10% contamination with <1mm, friction coefficient 0.70.
Nyers UUOO 210000Z 29003MPS CAVOK 15/13 Q1009 R30/010070 NOSIG RMK QFE743

VFR

16°C / 14°C

[Több]
Szél 290º 4kt
Látási viszonyok 9700m
Időjárás -
Felhők Clouds and Visibility OK
Légnyomás 1009
Módosítás No Significant change. Runway 30: Clear and dry, 1-10% contamination with <1mm, friction coefficient 0.70.
Nyers UUOO 202330Z 29002MPS CAVOK 16/14 Q1009 R30/010070 NOSIG RMK QFE743

VFR

17°C / 14°C

[Több]
Szél 290º 4kt
Látási viszonyok 9700m
Időjárás -
Felhők Clouds and Visibility OK
Légnyomás 1009
Módosítás No Significant change. Runway 30: Clear and dry, 1-10% contamination with <1mm, friction coefficient 0.70.
Nyers UUOO 202300Z 29002MPS CAVOK 17/14 Q1009 R30/010070 NOSIG RMK QFE743

VFR

18°C / 14°C

[Több]
Szél 290º 4kt
Látási viszonyok 9700m
Időjárás -
Felhők Clouds and Visibility OK
Légnyomás 1009
Módosítás No Significant change. Runway 30: Clear and dry, 1-10% contamination with <1mm, friction coefficient 0.70.
Nyers UUOO 202230Z 29002MPS CAVOK 18/14 Q1009 R30/010070 NOSIG RMK QFE743

VFR

18°C / 13°C

[Több]
Szél 300º 6kt
Látási viszonyok 9700m
Időjárás -
Felhők Clouds and Visibility OK
Légnyomás 1009
Módosítás No Significant change. Runway 30: Clear and dry, 1-10% contamination with <1mm, friction coefficient 0.70.
Nyers UUOO 202200Z 30003MPS CAVOK 18/13 Q1009 R30/010070 NOSIG RMK QFE743

VFR

18°C / 14°C

[Több]
Szél 300º 6kt
Látási viszonyok 9700m
Időjárás -
Felhők Clouds and Visibility OK
Légnyomás 1009
Módosítás No Significant change. Runway 30: Clear and dry, 1-10% contamination with <1mm, friction coefficient 0.70.
Nyers UUOO 202130Z 30003MPS CAVOK 18/14 Q1009 R30/010070 NOSIG RMK QFE743

TAF 51.82°É 39.23°K (UUOO)-ért

From till


From till Wind 300º 6kt. Gust 16kt. Visibility 9700m. Scattered Clouds 3000ft.

Nyers: TAF UUOO 210800Z 2109/2118 30003G08MPS 9999 SCT030

Radarkép és ultrarövid távú csapadék-előrejelzés a következő helyhez: 51.82°É 39.23°K

Szitáló eső
Enyhe
Mérsékelt
Erős
Nagyon heves
Jégeső

A helyzetjelző helye: 51.82°É 39.23°K. Ez az animáció a csapadékradart mutatja a kiválasztott időintervallumra, valamint egy 2h előrejelzést. A narancssárga keresztek villámlást jeleznek. Az adatokat nowcast.de szolgáltatta (elérhető az USA-ban, Európában és Ausztráliában). A szitáló eső vagy enyhe hóesés láthatatlan lehet a radar számára. A csapadék intenzitása színkóddal van jelölve, a türkizkéktől a pirosig.

Aktuális műholdas és esőképek ezen a helyen: 51.82°É 39.23°K

A helyszín jelölő a következő helyen van elhelyezve: 51.82°É 39.23°K. [Több]

A valós idejű műholdas kép ötvözi a nappali látható fényt az éjszakai infravörös sugárzással. Éjjel a kép nem sötét, mivel az infravörös sugárzás képes érzékelni a hőmérséklet-különbségeket. Sajnos az alacsony felhőket és a ködöt nehéz megkülönböztetni a talaj hőmérsékletétől, így az éjszaka folyamán szinte láthatatlanok lehetnek. A Meteosat európai műholdképei valós időben frissülnek minden 5 percben. A GOES-16/GOES-17 (Észak- és Dél-Amerika) és Himawari (Ázsia) képei 10 percenként frissülnek.

A csapadékmennyiséget radar és műholdak alapján becsülik. A műholdakról származó csapadékbecslések éjszaka kevésbé pontosak, mint nappal.

© 2024 meteoblue, NOAA Satellites GOES-16 and EUMETSAT. nowcast által biztosított villámlással kapcsolatos adatok.

Vissza a tetejére
×
Szia,
úgy tűnik, hogy reklámblokkolót használsz.

A reklámozás elengedhetetlen ahhoz, hogy ingyenes honlapunkat egyedülálló részletességgel és pontossággal tartsuk fenn.

Kérjük, vegye fel a www.meteoblue.com fehérlistára a reklámblokkolóján, vagy fontolja meg valamelyik termékünk megvásárlását:

Már rendelkezik előfizetéssel?
Akkor kérjük, jelentkezzen be.